Lapse_Rate
5.5 5.2 5.2 5.7 5.3 5.0 4.8 4.7 4.8 4.9 5.3 5.0 5.1 5.1 5.0 5.1 5.5 6.7 7.6 7.8 7.8 7.8 7.7 7.6 7.4 7.2 7.2 7.0 6.8 6.7 6.8 6.6 6.4 6.3 6.4 5.9 5.9 6.1 6.2 6.3 6.2 6.1 5.8 5.7
5.0 5.0 5.6 5.2 5.0 4.8 4.7 4.8 5.0 5.1 5.5 5.3 5.3 5.0 5.5 6.5 7.2 7.6 7.7 7.8 8.0 7.9 7.8 7.6 7.6 7.5 7.3 7.3 7.2 7.2 7.2 7.0 6.9 6.5 6.3 6.1 5.9 6.1 6.2 6.3 6.2 6.0 5.9 5.8
5.0 5.4 5.1 5.1 5.1 5.0 5.1 5.2 5.4 5.5 5.9 6.1 6.1 5.7 6.0 7.4 7.8 8.2 8.0 7.7 8.0 7.8 7.8 7.9 7.8 8.0 7.8 7.6 7.5 7.3 7.5 7.4 7.2 6.8 6.5 6.3 6.2 6.2 6.3 6.1 5.9 5.9 5.7 5.7
5.3 5.3 5.2 5.2 5.1 5.3 5.4 6.1 6.0 6.0 6.3 6.2 6.4 6.0 6.6 7.3 8.1 8.3 7.7 8.1 8.0 8.1 8.0 8.2 8.2 8.3 8.0 7.9 8.0 8.1 8.0 7.7 7.4 7.2 6.8 6.5 6.4 6.2 6.0 5.9 5.8 5.9 5.8 5.6
5.5 5.3 5.2 5.5 5.8 6.1 6.2 6.7 6.8 6.6 6.6 6.6 6.6 7.2 6.7 6.8 7.8 7.8 8.0 8.0 8.1 8.1 8.2 8.6 8.7 8.4 8.0 7.9 7.8 8.1 8.2 8.3 7.8 7.4 7.1 6.6 6.4 6.4 6.1 6.0 6.1 6.1 6.0 5.8
5.5 5.8 6.0 6.2 6.5 6.9 7.2 7.3 7.3 7.2 7.0 6.2 6.7 7.6 6.8 7.0 7.6 7.7 8.0 8.2 7.8 7.9 7.9 8.2 8.2 8.0 7.9 8.0 7.8 7.5 8.3 8.5 8.2 7.4 7.2 7.0 6.5 6.4 6.5 6.3 6.2 6.2 6.0 6.0
6.0 6.1 6.1 6.4 6.9 7.3 7.6 7.6 7.1 6.3 6.4 6.8 7.4 7.5 7.4 7.4 7.8 7.7 7.9 7.9 7.6 7.5 7.5 7.7 7.9 7.7 7.7 8.0 7.9 8.2 7.9 8.3 7.8 7.5 7.2 7.0 6.8 6.4 6.7 6.4 6.2 6.1 6.0 6.1
6.0 5.8 6.4 6.5 7.1 7.3 7.2 7.1 7.2 6.0 6.2 6.1 7.5 7.4 7.9 7.6 7.6 7.9 8.1 7.7 7.6 7.5 7.4 7.4 7.4 7.7 7.6 7.7 8.0 8.4 8.6 8.1 7.0 7.3 7.3 6.9 6.6 6.7 6.6 6.4 6.3 6.3 6.2 6.1
6.0 5.7 5.7 6.3 6.4 6.7 6.4 6.7 6.2 6.6 6.9 6.2 6.6 7.0 7.7 7.6 7.4 7.6 7.9 7.8 8.0 8.1 8.0 7.7 7.5 7.5 7.5 7.7 7.9 7.9 8.3 7.8 7.2 7.0 7.0 6.8 6.6 6.7 6.5 6.3 6.4 6.2 6.0 6.0
5.9 5.8 5.7 5.6 6.0 6.2 6.1 6.2 6.6 6.7 5.5 6.2 6.5 6.6 7.2 6.9 7.1 7.2 7.8 7.7 7.9 7.9 8.4 8.2 7.7 7.2 7.5 7.7 7.2 7.3 7.2 7.0 6.9 6.8 6.9 6.7 6.5 6.5 6.5 6.2 6.2 6.2 6.0 6.0
5.7 6.0 5.7 5.7 6.0 6.1 6.2 5.9 5.7 6.0 6.2 5.4 6.1 6.6 6.0 5.9 6.1 5.9 5.9 6.3 6.5 6.9 7.5 7.9 7.6 6.7 6.7 6.8 6.3 6.6 6.9 6.7 6.8 6.6 6.5 6.6 6.4 6.5 6.4 6.2 6.2 6.1 6.0 5.9
5.7 5.6 5.5 5.6 5.8 5.9 5.5 5.1 5.3 4.9 4.7 4.5 4.3 5.1 5.6 6.0 5.8 5.8 6.1 5.9 6.1 6.4 6.4 7.3 6.9 6.9 6.4 6.9 7.0 6.8 6.9 6.3 6.4 6.6 6.3 6.2 6.2 6.3 6.3 6.2 6.1 6.0 5.8 5.6
5.5 5.5 5.4 4.9 5.1 5.4 5.4 4.9 4.7 4.5 4.4 4.2 4.1 4.4 5.3 6.2 6.8 6.6 6.0 6.7 6.4 6.4 6.5 6.8 6.9 6.7 6.9 6.9 7.0 6.8 6.5 6.9 6.6 6.7 6.3 5.9 5.9 6.1 6.0 6.0 5.9 5.8 5.6 5.5
5.9 6.0 6.1 6.0 6.1 5.9 5.0 4.6 4.9 4.9 4.3 4.3 4.0 4.2 5.3 6.1 6.9 7.0 6.8 6.4 6.5 6.7 6.6 6.6 6.9 6.8 6.4 6.8 6.6 6.7 6.9 7.0 6.9 6.8 6.0 5.9 6.1 5.9 5.7 5.8 5.7 5.7 5.6 5.7
5.9 5.7 5.5 5.4 5.4 5.0 5.0 4.9 4.8 4.8 5.4 4.8 5.6 5.6 5.8 6.2 6.6 6.8 6.6 7.0 6.8 6.3 5.9 5.6 6.3 6.5 6.6 6.7 6.7 6.5 6.7 6.8 6.6 6.5 6.2 6.1 6.0 5.7 5.7 5.8 5.7 5.6 5.6 5.6
5.9 5.2 5.1 5.5 5.2 5.2 5.4 5.5 5.7 6.4 6.7 6.2 6.5 5.9 6.4 5.8 6.2 6.7 6.9 7.1 6.8 6.8 6.0 6.2 5.9 6.0 6.5 6.5 6.6 6.1 6.3 6.7 6.4 6.6 6.3 6.1 6.1 5.8 5.8 5.6 5.5 5.3 5.3 5.3
6.1 5.8 5.6 5.6 5.4 5.3 6.1 6.4 6.3 6.9 7.6 7.0 6.4 6.9 6.5 6.2 6.3 6.4 6.5 6.1 6.4 6.8 6.5 6.3 6.7 6.2 6.3 6.2 6.3 6.3 6.2 6.6 6.5 6.5 6.3 6.2 6.1 5.7 5.6 5.4 5.1 5.1 5.1 5.2
6.6 6.2 6.0 6.2 6.0 4.7 7.5 7.1 7.3 7.6 7.6 7.2 7.4 7.4 7.2 6.4 6.3 6.1 6.2 6.2 6.6 7.0 6.8 6.6 6.4 5.3 5.6 6.4 6.7 5.9 6.2 6.1 6.2 6.5 6.3 6.3 6.1 5.5 5.3 5.1 4.7 4.8 5.1 5.3
6.7 6.8 6.6 6.5 6.0 6.8 7.5 7.8 7.9 7.5 8.2 7.5 7.0 7.4 7.5 7.3 7.3 7.4 6.8 6.8 6.9 6.3 6.4 6.1 6.5 6.3 5.5 5.7 6.1 5.9 6.0 6.4 6.4 6.5 6.3 6.4 5.7 5.4 5.2 4.9 4.8 4.8 5.0 5.1
7.4 7.3 7.0 6.4 6.2 6.0 7.4 7.8 8.0 7.7 7.7 7.2 7.4 7.3 7.6 7.7 7.8 7.1 7.1 6.9 6.7 6.4 6.1 5.7 6.0 6.2 6.0 6.0 5.7 6.0 6.3 6.4 6.5 6.6 6.5 6.2 5.4 5.2 5.1 5.0 4.9 4.9 4.9 4.9
7.3 7.2 7.1 6.8 6.5 6.6 7.7 7.8 7.9 7.7 7.5 7.6 7.3 7.4 7.3 7.3 7.3 7.3 7.5 7.1 6.7 6.5 5.5 5.4 5.9 7.0 5.7 5.7 5.6 6.1 6.2 6.0 6.5 6.5 6.4 5.6 5.1 5.1 4.9 4.9 4.8 4.9 5.1 4.8
7.9 7.3 6.9 6.6 6.6 6.6 7.7 7.7 7.7 7.5 7.3 7.4 7.3 7.4 7.3 7.0 6.9 6.8 7.2 7.0 6.3 5.5 5.5 5.6 6.1 5.8 5.6 5.9 6.2 6.1 6.0 6.1 6.3 6.6 6.1 5.4 5.2 5.1 5.0 5.3 5.0 5.0 4.9 4.9
7.1 7.1 7.3 7.4 8.1 7.7 7.8 7.7 7.7 7.5 7.4 7.3 7.5 7.6 7.4 7.4 7.3 6.5 6.6 6.5 6.2 5.2 5.6 5.9 5.7 5.8 5.4 5.6 5.6 5.9 5.9 6.0 6.0 6.6 6.0 5.5 5.2 5.0 5.4 5.2 5.2 5.2 4.8 4.8
7.8 7.2 7.3 7.2 8.6 7.9 7.9 7.9 7.7 7.7 7.6 7.6 7.4 7.6 7.5 7.6 7.2 7.0 7.1 6.8 6.1 5.1 5.6 5.7 5.7 6.2 5.8 5.9 6.0 5.7 5.9 6.0 5.9 6.0 6.1 5.4 5.4 5.2 5.3 5.0 5.3 5.0 5.1 4.9
8.4 7.6 7.8 8.0 8.3 7.9 8.0 8.0 7.9 7.9 7.8 7.9 7.6 7.5 7.6 7.6 7.5 7.2 7.0 6.8 6.5 5.4 4.9 5.5 5.7 5.8 5.9 5.8 5.9 6.0 5.9 6.0 5.9 5.8 6.1 5.6 5.4 5.4 5.2 5.3 5.0 4.7 5.4 5.3
8.8 8.2 8.1 8.1 7.7 7.8 8.1 8.0 7.9 7.9 8.1 8.1 7.7 7.7 7.5 7.6 7.7 7.4 7.2 6.8 6.3 5.7 5.5 5.2 5.0 5.3 5.6 6.0 5.8 5.9 6.3 6.3 6.0 6.1 6.1 5.7 5.4 5.3 5.2 5.1 4.9 5.2 5.6 5.7
Wind_Speed
1 2 6 13 8 1 1 4 7 5 9 6 13 13 9 11 8 11 15 12 12 11 10 10 9 8 8 7 9 13 14 13 10 5 6 4 5 3 3 4 8 9 10 10
2 6 11 4 4 5 5 7 7 6 9 4 8 17 10 8 9 13 13 16 11 9 9 11 11 8 9 9 13 14 15 14 13 9 5 4 3 2 2 3 4 8 8 9
7 6 3 4 5 7 6 6 6 11 5 4 6 13 7 7 7 7 8 11 15 11 13 13 12 8 8 9 13 16 17 17 13 12 7 4 4 4 2 2 3 4 7 7
6 4 3 3 5 6 5 10 12 9 2 4 4 7 8 8 10 1 11 14 14 13 9 8 8 7 8 10 12 15 16 18 13 15 12 14 9 6 3 4 3 4 7 6
6 1 2 4 4 3 7 2 6 3 3 3 1 1 6 6 11 14 15 19 17 10 11 10 7 6 4 5 11 13 15 14 13 15 13 9 5 3 3 3 6 4 4 6
3 4 4 3 1 1 5 3 2 3 2 4 4 5 10 2 4 9 15 19 18 17 16 12 10 5 3 4 5 8 11 14 13 13 9 11 9 7 5 4 4 4 2 3
5 2 3 3 3 4 6 0 3 3 1 8 1 5 11 4 4 8 14 16 17 17 16 13 12 9 6 4 4 10 11 6 11 12 9 8 9 8 8 6 4 5 3 2
3 3 8 9 4 1 4 4 4 6 4 4 2 5 5 4 4 7 11 12 16 19 17 15 11 8 7 6 4 6 14 11 7 9 9 6 7 4 4 5 5 4 3 4
3 3 3 6 5 2 3 5 0 1 4 2 4 5 2 5 13 15 17 19 19 18 17 16 13 7 6 6 7 8 10 10 11 7 7 7 6 7 6 6 5 4 4 3
3 0 3 4 1 6 4 2 2 1 2 5 5 4 5 12 12 15 19 17 18 19 18 17 15 10 6 6 6 10 8 8 9 6 6 6 6 6 7 6 6 5 4 4
2 1 1 4 3 4 4 2 3 1 2 3 5 5 5 9 9 13 15 12 14 15 15 14 17 9 6 5 6 7 8 9 7 7 5 6 5 6 6 6 6 6 4 5
2 3 1 2 5 5 1 3 4 2 4 2 3 8 6 8 12 17 18 14 13 13 13 12 11 16 6 3 5 3 7 8 5 6 9 5 6 6 7 6 6 6 4 4
4 1 1 1 3 3 4 2 3 3 3 7 3 8 9 22 19 15 17 17 13 13 14 11 12 12 14 5 4 6 5 7 7 8 9 6 6 7 6 5 5 5 3 3
5 3 4 4 1 3 1 2 3 4 2 6 14 23 19 20 24 16 15 16 13 11 12 12 12 12 15 7 5 7 7 8 8 8 8 7 7 7 6 5 5 4 2 2
3 3 3 5 6 5 8 10 6 7 15 8 20 19 21 18 21 18 15 14 12 11 10 8 12 11 11 14 6 7 8 9 8 9 7 7 7 6 6 5 3 3 3 2
3 1 2 3 6 6 12 12 12 16 18 14 19 21 23 22 20 19 14 13 11 11 10 8 12 10 9 15 9 9 10 10 9 9 8 7 7 6 5 4 3 3 3 4
5 4 2 3 3 5 5 5 4 5 6 8 11 18 11 12 14 16 14 8 11 11 9 7 9 8 7 10 9 10 11 10 9 9 8 8 7 6 5 5 4 5 6 7
5 5 3 3 2 3 6 2 7 8 11 7 7 13 16 15 17 19 16 14 12 8 8 6 6 8 7 9 15 8 12 11 11 10 9 8 8 6 6 6 6 6 7 8
4 4 1 2 2 6 5 3 2 3 16 1 13 18 15 21 17 17 16 14 10 8 5 6 8 7 5 7 13 12 12 11 11 10 10 9 8 7 7 7 7 7 9 9
5 5 4 1 2 4 3 4 4 0 5 5 11 13 17 16 7 5 14 2 3 4 4 6 5 7 7 12 11 14 13 12 11 11 10 10 8 8 8 8 8 7 9 9
3 2 5 3 4 7 7 6 4 2 5 13 12 11 13 6 8 7 9 6 1 2 7 8 8 8 9 15 8 12 13 12 10 11 11 10 9 9 9 8 8 9 10 10
6 6 4 2 3 7 5 3 1 5 5 7 12 12 8 8 6 6 12 7 1 4 6 10 10 12 15 14 13 13 12 11 12 12 11 10 10 8 8 11 9 10 11 11
2 6 5 8 6 4 2 4 6 4 6 4 7 12 7 8 6 5 2 5 4 5 3 7 9 13 13 7 11 13 12 14 12 12 11 11 10 10 9 11 11 9 10 9
4 4 3 1 6 10 5 6 5 5 6 8 7 8 6 7 6 6 5 6 6 7 5 3 9 15 14 4 7 12 13 13 13 12 12 10 11 10 9 7 7 8 8 8
5 6 4 5 7 6 11 6 5 6 9 8 8 6 6 6 5 1 4 5 5 5 5 4 7 11 15 6 9 10 12 14 12 12 11 10 9 10 9 7 6 7 4 8
5 6 5 6 7 4 4 5 5 6 9 7 5 8 8 4 2 1 4 4 4 5 6 6 5 7 13 5 8 9 11 13 14 12 10 9 9 8 8 8 8 14 12 14
Wind_Direction
284 148 204 221 210 177 226 248 260 259 271 283 287 289 268 276 293 279 287 276 269 262 266 271 264 224 223 210 178 184 184 175 150 155 151 158 170 154 143 148 149 142 144 154
17 241 237 231 240 236 248 263 271 277 256 208 274 277 274 258 252 254 263 282 278 269 272 267 264 246 191 196 192 179 184 172 171 168 168 142 139 103 105 136 141 144 151 164
181 227 117 185 258 262 235 231 248 251 288 271 288 288 272 274 264 287 292 270 280 250 266 267 266 232 197 190 190 181 184 177 171 150 120 97 81 67 101 149 135 157 156 166
220 243 226 200 220 239 265 229 248 269 326 269 133 289 294 277 282 307 331 329 308 278 271 268 268 243 200 202 191 188 181 172 165 152 158 166 167 167 183 152 151 152 149 160
254 276 174 197 201 191 239 340 252 250 243 319 241 203 273 339 315 346 337 333 329 331 323 315 313 309 244 204 184 186 170 172 161 162 164 156 137 123 121 119 135 140 147 152
241 346 54 292 26 87 279 256 66 77 100 301 194 197 285 34 316 314 324 336 345 354 340 333 334 10 61 80 149 144 169 161 157 149 141 146 143 141 132 131 136 146 142 155
342 26 348 11 339 343 5 78 351 329 244 234 66 245 251 103 355 336 342 345 352 359 349 344 351 353 2 105 127 137 130 126 141 136 135 146 143 148 152 153 147 145 139 151
190 277 358 337 57 303 350 330 159 210 222 252 18 239 255 119 12 357 357 349 359 4 357 345 355 357 15 12 75 112 129 123 108 125 122 140 150 140 146 153 143 146 153 149
164 270 290 40 20 348 343 59 281 303 298 11 233 294 103 130 21 9 3 359 351 355 357 355 341 344 36 37 55 93 102 103 108 116 122 123 126 136 138 127 123 132 139 144
161 19 19 325 315 22 93 211 71 42 287 257 271 229 229 26 8 357 358 355 349 343 352 357 350 334 26 46 58 76 77 90 101 108 97 112 121 114 115 118 126 138 150 161
108 97 302 360 18 352 354 37 51 91 172 236 295 266 89 52 9 349 339 336 340 338 338 356 354 320 334 71 59 101 115 115 94 95 74 102 104 103 105 110 119 118 113 127
32 109 158 235 324 313 266 82 55 90 313 258 224 260 154 6 351 345 335 329 322 331 326 347 356 349 282 165 142 152 117 114 116 123 114 94 100 100 96 99 108 102 104 94
164 105 101 56 354 20 98 81 130 176 194 224 237 255 345 317 320 332 320 318 311 323 330 331 351 346 324 261 151 143 133 123 123 121 104 116 104 101 101 100 99 99 83 81
111 153 171 200 234 153 90 226 258 168 193 256 251 283 288 292 297 302 304 300 299 307 319 328 335 344 347 258 205 151 133 131 124 120 119 119 107 102 105 98 85 100 127 147
100 198 194 231 236 240 256 248 221 201 238 224 269 268 276 271 273 279 281 285 284 288 292 305 318 325 327 313 192 147 138 131 129 119 116 112 107 110 99 91 112 131 146 156
25 198 157 282 248 253 273 268 251 258 268 266 262 267 267 269 272 272 258 263 264 269 285 322 292 285 342 318 205 159 147 142 134 131 127 127 116 109 110 128 129 129 124 102
136 138 134 282 328 279 296 256 216 251 216 246 276 288 304 295 280 272 275 251 253 247 241 249 279 290 302 313 300 170 150 140 139 134 136 131 120 122 133 123 118 111 101 97
145 127 113 231 341 357 246 245 236 240 266 295 302 313 289 289 285 281 271 253 252 212 227 256 261 257 293 331 332 188 151 150 143 139 136 132 125 139 129 119 112 101 100 97
170 128 57 128 212 286 283 114 309 322 304 92 335 304 302 295 286 280 264 243 213 201 220 238 247 250 260 299 295 172 147 147 146 145 143 135 141 140 131 118 114 107 100 91
77 86 115 125 160 254 243 273 272 232 282 340 325 319 332 334 350 319 329 271 145 147 254 267 287 259 34 305 259 155 149 149 154 150 142 137 143 137 128 123 115 105 97 94
88 32 176 223 252 274 241 269 329 66 265 327 314 319 325 347 326 281 343 356 136 43 295 308 344 352 321 283 189 156 151 152 146 134 128 132 134 130 124 117 117 112 105 104
161 150 195 142 207 269 189 16 136 231 294 286 312 307 312 290 267 22 2 330 70 273 11 352 348 339 308 250 165 152 149 135 133 132 129 129 129 129 125 119 111 112 113 109
171 187 181 176 214 245 227 230 252 244 252 257 274 305 297 300 297 320 297 357 0 318 45 24 333 325 313 152 150 140 138 134 133 131 130 129 127 126 128 126 120 117 115 114
224 172 210 154 248 247 231 293 264 286 269 279 288 284 282 287 300 311 0 0 2 357 345 68 355 346 334 72 131 135 137 136 134 132 131 130 127 125 128 124 129 129 128 118
193 145 198 263 282 292 282 246 262 296 303 300 304 283 300 304 283 325 349 356 341 327 321 26 28 335 316 118 124 133 137 137 133 134 132 131 131 131 127 118 128 129 108 137
186 187 172 221 218 196 254 279 295 304 290 296 312 320 326 329 26 17 329 332 330 333 334 22 356 350 314 105 127 137 142 140 138 137 135 136 134 133 125 116 93 75 86 102